Location: Austin
(30.3000°N, 97.7500°W)
Time: 11:58:20
(UTC-05:00)

Cosmos 2074 Rocket - Pass Details

Date: 26 May 2023
Orbit: 966 x 986 km, 82.9° (Epoch: 30 May)

Event Time Altitude Azimuth Distance (km) Brightness Sun altitude
Exits shadow 21:47:40 - 177° (S) 2,838 6.1 -16.1°
Reaches altitude 10° 21:48:02 10° 176° (S) 2,697 5.9 -16.2°
Maximum altitude 21:54:11 72° 93° (E) 1,013 3.9 -17.2°
Drops below altitude 10° 22:00:21 10° 10° (N) 2,710 6.7 -18.3°
Sets 22:02:51 0° 9° (N) 3,660 7.4 -18.7°
